カタログに戻る

QIANFAN-21

運用中通信PO
NORAD 61554·PAYLOAD·🇨🇳 China

打ち上げ Oct 15, 2024 から Taiyuan Satellite Launch Center

Loading…

次のパス (今後24時間)

TLE

最新Source: Space-Track

元期: Sep 14, 2026, 20:43 UTC

1 61554U 24185C   26257.86320285  .00000488  00000-0  21047-3 0  9994
2 61554  88.9769  44.6439 0010834 172.0671 188.0695 14.22929827109238

AllMySatでQIANFAN-21をリアルタイム追跡

Download on the App Store